Denver, CO

6:14 PM MDT on July 26, 2017 (GMT -0600)
Denver International

Weather History for KDEN - May, 2012

Change the Weather History Date:

Wednesday, May 16, 2012

  Actual Average Record
Temperature  
Mean Temperature 67 °F 57 °F  
Max Temperature 84 °F 72 °F 93 °F (1996)
Min Temperature 50 °F 43 °F 30 °F (1910)
Degree Days  
Heating Degree Days 0 8  
Month to date heating degree days 119 173  
Since 1 July heating degree days 5334 5904  
Cooling Degree Days 2 1  
Month to date cooling degree days 13 1  
Year to date cooling degree days 19 2  
Growing Degree Days 18 (Base 50)    
Moisture  
Dew Point 28 °F    
Average Humidity 27    
Maximum Humidity 43    
Minimum Humidity 10    
Precipitation  
Precipitation T in 0.07 in 1.75 in (1953)
Month to date precipitation 0.22 1.06  
Year to date precipitation 2.80 4.47  
Snow  
Snow 0.00 in - - ()
Month to date snowfall 0  
Since 1 July snowfall 55.6  
Snow Depth 0.00 in    
Sea Level Pressure  
Sea Level Pressure 29.85 in    
Wind  
Wind Speed 11 mph (SW)    
Max Wind Speed 36 mph    
Max Gust Speed 47 mph    
Visibility 10 miles    
Events Rain , Thunderstorm    
T = Trace of Precipitation, MM = Missing Value Source: NWS Daily Summary

Daily Weather History Graph

Daily Weather History Graph

Search for Another Location

Airport or City:

Trip Planner

Search our weather history database for the weather conditions in past years. The results will help you decide how hot, cold, wet, or windy it might be!

Date:

Astronomy

May. 16, 2012 Rise Set
Actual Time 5:42 AM MDT 8:08 PM MDT
Civil Twilight 5:11 AM MDT 8:39 PM MDT
Nautical Twilight 4:33 AM MDT 9:17 PM MDT
Astronomical Twilight 3:51 AM MDT 9:59 PM MDT
Moon 3:12 AM MDT (5/16) 4:26 PM MDT (5/16)
Length of Visible Light 15h 27m
Length of Day
14h 25m
Waning Crescent, 15% of the Moon is Illuminated
May 16
Waning Crescent
May 20
New
May 28
First Quarter
Jun 4
Full
Jun 11
Last Quarter

Hourly Weather History & Observations

Time (MDT) Temp. Dew Point Humidity Pressure Visibility Wind Dir Wind Speed Gust Speed Precip Events Conditions
12:53 AM 57.9 °F 21.9 °F 25% 29.95 in 10.0 mi South 10.4 mph - N/A   Partly Cloudy
1:53 AM 52.0 °F 23.0 °F 32% 29.94 in 10.0 mi SSE 11.5 mph - N/A   Partly Cloudy
2:53 AM 57.0 °F 21.0 °F 25% 29.90 in 10.0 mi South 15.0 mph - N/A   Partly Cloudy
3:53 AM 57.0 °F 21.0 °F 25% 29.88 in 10.0 mi South 16.1 mph - N/A   Scattered Clouds
4:53 AM 50.0 °F 24.1 °F 36% 29.90 in 10.0 mi SSE 15.0 mph - N/A   Partly Cloudy
5:53 AM 53.1 °F 24.1 °F 32% 29.88 in 10.0 mi South 10.4 mph 20.7 mph N/A   Mostly Cloudy
6:53 AM 55.0 °F 28.9 °F 37% 29.90 in 10.0 mi Calm Calm - N/A   Mostly Cloudy
7:53 AM 57.9 °F 30.0 °F 35% 29.93 in 10.0 mi West 3.5 mph - N/A   Mostly Cloudy
8:53 AM 68.0 °F 30.0 °F 24% 29.90 in 10.0 mi WSW 6.9 mph - N/A   Mostly Cloudy
9:53 AM 79.0 °F 27.0 °F 15% 29.86 in 10.0 mi WSW 12.7 mph 18.4 mph N/A   Mostly Cloudy
10:53 AM 81.0 °F 24.1 °F 12% 29.86 in 10.0 mi West 9.2 mph - N/A   Mostly Cloudy
11:53 AM 82.9 °F 23.0 °F 11% 29.79 in 10.0 mi Variable 5.8 mph - N/A   Mostly Cloudy
12:53 PM 82.0 °F 21.0 °F 10% 29.78 in 10.0 mi Variable 3.5 mph - N/A   Mostly Cloudy
1:35 PM 82.4 °F 35.6 °F 19% 29.99 in 10.0 mi NW 17.3 mph - N/A   Mostly Cloudy
1:53 PM 81.0 °F 32.0 °F 17% 29.78 in 10.0 mi NW 11.5 mph - N/A   Mostly Cloudy
2:21 PM 78.8 °F 24.8 °F 14% 29.98 in 10.0 mi WNW 13.8 mph 26.5 mph N/A Thunderstorm Thunderstorm
2:53 PM 75.9 °F 26.1 °F 16% 29.81 in 10.0 mi South 5.8 mph 33.4 mph N/A Thunderstorm Thunderstorm
3:17 PM 69.8 °F 35.6 °F 28% 30.00 in 10.0 mi NNE 8.1 mph 19.6 mph 0.00 in Rain Light Rain
3:53 PM 73.9 °F 32.0 °F 21% 29.78 in 10.0 mi WNW 9.2 mph - 0.00 in   Mostly Cloudy
4:53 PM 75.0 °F 28.0 °F 18% 29.79 in 10.0 mi West 20.7 mph 26.5 mph N/A   Mostly Cloudy
5:53 PM 73.0 °F 28.9 °F 20% 29.81 in 10.0 mi SW 24.2 mph 40.3 mph N/A   Mostly Cloudy
6:53 PM 71.1 °F 28.9 °F 21% 29.81 in 10.0 mi South 8.1 mph - N/A   Mostly Cloudy
7:53 PM 68.0 °F 34.0 °F 28% 29.83 in 10.0 mi West 12.7 mph - N/A   Mostly Cloudy
8:53 PM 64.9 °F 34.0 °F 32% 29.79 in 10.0 mi WNW 9.2 mph - N/A   Mostly Cloudy
9:53 PM 55.9 °F 34.0 °F 44% 29.79 in 10.0 mi South 5.8 mph - N/A   Mostly Cloudy
10:53 PM 59.0 °F 34.0 °F 39% 29.76 in 10.0 mi SSW 9.2 mph - N/A   Scattered Clouds
11:53 PM 59.0 °F 35.1 °F 41% 29.74 in 10.0 mi SSW 12.7 mph - N/A   Scattered Clouds